IK5NLA Vaiano IT current weather conditions

sailwx.info

Wind from 160 at 2 knots

Air temperature 16.7° C
Dewpoint 14.5° C

Last reported at 2015-Sep-03 01:55 UTC.
Time now 2015-Sep-03 02:36 UTC

Location: N 43°58' E 011°06'.
View on Google Maps.

See reports from other nearby stations

  
Tides and Currents Weather Stations Pressure Air Temp Water Temp Dewpoint Dewpoint Depression Visibility Wind Speed Wind Dir Waves Ship Positions
date/time (UTC)wind fromknots sea level pressurealtimeterstation pressurevisibilityair tempwater tempwave heightnotes
2015-Sep-03 01:55 160 2 16.7
2015-Sep-03 01:35 252 3 16.7
2015-Sep-03 01:30 231 2 16.7
2015-Sep-03 01:20 225 2 16.7
2015-Sep-03 01:15 242 2 16.7
2015-Sep-03 01:10 223 1 16.1
2015-Sep-03 00:55 272 1 16.7
2015-Sep-03 00:50 272 1 16.7
2015-Sep-03 00:40 253 1 16.7
2015-Sep-03 00:20 248 1 16.7
2015-Sep-03 00:10 246 3 16.7
2015-Sep-02 23:55 229 3 17.2
2015-Sep-02 23:45 232 3 17.2
2015-Sep-02 23:30 253 5 17.2
2015-Sep-02 23:25 221 4 17.2
2015-Sep-02 23:05 244 0 17.2
2015-Sep-02 23:00 221 1 17.2
2015-Sep-02 22:55 269 2 17.2
2015-Sep-02 22:35 171 1 17.2
2015-Sep-02 22:30 254 1 17.8
2015-Sep-02 22:20 153 2 17.8
2015-Sep-02 22:00 202 1 17.8
2015-Sep-02 21:55 259 1 17.8
2015-Sep-02 21:45 265 2 17.8
2015-Sep-02 21:35 177 5 17.8
2015-Sep-02 21:20 194 2 17.8
2015-Sep-02 21:15 165 2 17.8
2015-Sep-02 21:05 150 2 18.3
2015-Sep-02 21:00 173 2 18.3
2015-Sep-02 20:55 178 2 18.3
2015-Sep-02 20:50 148 1 18.3
2015-Sep-02 20:35 171 3 18.3
2015-Sep-02 20:30 107 2 18.3
2015-Sep-02 20:20 121 1 18.3
2015-Sep-02 20:05 114 2 18.3
2015-Sep-02 20:00 119 2 18.3
2015-Sep-02 19:50 090 2 18.3
2015-Sep-02 19:40 122 0 18.9
2015-Sep-02 19:25 259 2 18.9
2015-Sep-02 19:20 153 2 18.9
2015-Sep-02 19:10 202 1 19.4
2015-Sep-02 19:05 329 1 19.4
2015-Sep-02 18:50 038 2 20.0
2015-Sep-02 18:40 128 2 20.0
2015-Sep-02 18:35 106 2 20.0
2015-Sep-02 18:10 163 5 21.1
2015-Sep-02 17:50 192 5 21.1
2015-Sep-02 17:40 184 5 21.7
2015-Sep-02 17:35 282 5 21.7
2015-Sep-02 17:30 219 5 21.7
2015-Sep-02 17:20 209 3 21.7
2015-Sep-02 17:15 256 3 21.7
2015-Sep-02 17:10 248 4 21.7
2015-Sep-02 17:05 219 4 21.7
2015-Sep-02 17:00 198 3 22.2
2015-Sep-02 16:56 292 4 22.2
2015-Sep-02 16:40 207 4 22.2
2015-Sep-02 16:10 188 12 23.3
2015-Sep-02 16:00 207 10 23.3
2015-Sep-02 15:45 192 10 23.9
2015-Sep-02 15:40 209 8 23.9
2015-Sep-02 15:35 189 7 24.4
2015-Sep-02 15:25 186 7 24.4
2015-Sep-02 15:20 250 6 24.4
2015-Sep-02 15:10 207 6 24.4
2015-Sep-02 14:45 228 7 25.0
2015-Sep-02 14:40 240 7 25.0
2015-Sep-02 14:35 244 8 25.0
2015-Sep-02 14:30 211 10 25.0
2015-Sep-02 14:20 222 6 25.0
2015-Sep-02 14:10 271 9 24.4
2015-Sep-02 14:00 190 11 24.4
2015-Sep-02 13:50 197 9 24.4
2015-Sep-02 13:40 239 11 24.4
2015-Sep-02 13:35 242 10 24.4
2015-Sep-02 13:30 188 11 24.4
2015-Sep-02 13:25 192 11 24.4
2015-Sep-02 13:20 206 10 24.4
2015-Sep-02 13:15 205 8 24.4
2015-Sep-02 13:10 178 9 24.4
2015-Sep-02 13:05 219 8 24.4
2015-Sep-02 13:00 263 6 24.4
2015-Sep-02 12:55 237 6 24.4
2015-Sep-02 12:40 228 7 24.4
2015-Sep-02 12:30 317 6 24.4
2015-Sep-02 12:25 195 6 24.4
2015-Sep-02 12:20 211 8 23.9
2015-Sep-02 12:10 198 6 23.9
2015-Sep-02 12:05 172 6 23.9
2015-Sep-02 11:55 245 6 23.9
2015-Sep-02 11:45 211 9 23.3
2015-Sep-02 11:35 214 8 23.9
2015-Sep-02 11:30 198 5 23.3
2015-Sep-02 11:20 232 6 22.8
2015-Sep-02 11:10 265 6 23.3
2015-Sep-02 11:05 240 6 22.8
2015-Sep-02 11:00 256 6 22.8
2015-Sep-02 10:40 236 8 23.3
2015-Sep-02 10:35 227 6 23.3
2015-Sep-02 10:20 159 6 23.3
2015-Sep-02 10:15 190 7 22.8
2015-Sep-02 10:10 195 8 22.8
2015-Sep-02 10:05 184 6 23.3
2015-Sep-02 09:55 207 7 22.8
2015-Sep-02 09:45 190 6 22.8
2015-Sep-02 09:30 210 6 22.2
2015-Sep-02 09:25 182 6 22.2
2015-Sep-02 09:16 218 7 21.7
2015-Sep-02 09:10 267 8 21.1
2015-Sep-02 09:05 237 8 21.7
2015-Sep-02 08:50 245 6 21.7
2015-Sep-02 08:40 206 7 21.7
2015-Sep-02 08:35 232 6 21.7
2015-Sep-02 08:25 194 5 21.7
2015-Sep-02 08:15 112 3 21.7
2015-Sep-02 08:05 101 2 21.1
2015-Sep-02 07:55 092 1 21.1
2015-Sep-02 07:50 123 2 20.6
2015-Sep-02 07:45 106 2 20.0
2015-Sep-02 07:35 119 2 21.7
2015-Sep-02 07:30 153 2 21.7
2015-Sep-02 07:25 126 2 21.1
2015-Sep-02 07:10 157 0 21.7
2015-Sep-02 07:05 123 1 21.1
2015-Sep-02 07:00 142 1 21.1
2015-Sep-02 06:55 126 1 20.6
2015-Sep-02 06:40 135 0 20.0
2015-Sep-02 06:20 091 18.9
2015-Sep-02 06:15 091 18.9
2015-Sep-02 06:10 091 0 18.9
2015-Sep-02 05:50 097 0 19.4
2015-Sep-02 05:15 013 17.8
2015-Sep-02 05:05 013 17.8
2015-Sep-02 04:55 013 17.2
2015-Sep-02 04:50 013 0 17.2
2015-Sep-02 04:45 015 0 17.8
2015-Sep-02 04:40 015 1 17.8
2015-Sep-02 04:30 040 0 17.8
2015-Sep-02 04:20 045 0 17.8
2015-Sep-02 04:10 248 17.8
2015-Sep-02 03:50 236 18.3
2015-Sep-02 03:20 336 18.3
2015-Sep-02 03:10 336 18.3
2015-Sep-02 03:00 325 1 18.9
2015-Sep-02 02:30 265 2 20.0
2015-Sep-02 02:15 238 0 20.0
2015-Sep-02 02:10 238 1 20.0
2015-Sep-02 02:05 244 2 20.6
2015-Sep-02 02:00 277 2 20.0
2015-Sep-02 01:55 260 2 20.0
2015-Sep-02 01:50 265 3 20.0
2015-Sep-02 01:45 273 3 20.0
2015-Sep-02 01:15 263 2 20.0
2015-Sep-02 01:00 230 1 21.1
2015-Sep-02 00:50 325 1 20.6
2015-Sep-02 00:45 327 1 20.0
2015-Sep-02 00:40 273 1 20.0
2015-Sep-02 00:35 242 1 20.0
2015-Sep-02 00:30 290 1 20.0
2015-Sep-02 00:20 249 1 20.0
2015-Sep-02 00:15 279 2 20.0
2015-Sep-02 00:05 303 1 20.0
2015-Sep-01 23:50 300 1 20.0
2015-Sep-01 23:40 322 1 20.0
2015-Sep-01 23:35 274 0 20.0
2015-Sep-01 23:30 304 0 20.0
2015-Sep-01 23:25 304 0 20.0
2015-Sep-01 23:05 300 0 20.0
2015-Sep-01 23:00 304 0 20.0
2015-Sep-01 22:55 308 0 20.0
2015-Sep-01 22:30 289 0 20.6
2015-Sep-01 22:25 290 1 20.6
2015-Sep-01 22:10 203 1 21.7
2015-Sep-01 22:05 178 1 21.7
2015-Sep-01 21:55 180 2 22.2
2015-Sep-01 21:45 248 2 22.2
2015-Sep-01 21:25 231 2 22.2
2015-Sep-01 21:20 267 1 21.7
2015-Sep-01 21:15 280 1 21.7
2015-Sep-01 21:05 288 1 21.7
2015-Sep-01 20:56 261 2 21.7
2015-Sep-01 20:30 265 3 21.7
2015-Sep-01 20:25 236 2 21.7
2015-Sep-01 20:20 271 2 21.1
2015-Sep-01 20:10 269 1 21.1
2015-Sep-01 20:05 276 1 21.1
2015-Sep-01 20:00 280 1 21.1
2015-Sep-01 19:35 234 2 21.7
2015-Sep-01 19:31 217 0 21.7
2015-Sep-01 19:15 259 0 21.7
2015-Sep-01 19:10 259 1 21.7
2015-Sep-01 19:05 263 1 21.7
2015-Sep-01 18:55 267 2 21.7
2015-Sep-01 18:50 272 2 21.7
2015-Sep-01 18:40 281 1 21.7
2015-Sep-01 18:30 308 0 22.2
2015-Sep-01 18:20 284 1 22.2
2015-Sep-01 18:15 215 0 22.8
2015-Sep-01 18:10 265 22.8
2015-Sep-01 18:05 244 1 22.8
2015-Sep-01 18:00 250 2 22.8
2015-Sep-01 17:55 202 2 22.8
2015-Sep-01 17:30 182 6 23.3
2015-Sep-01 17:25 221 5 23.9
2015-Sep-01 17:20 198 4 23.9
2015-Sep-01 17:10 169 6 23.9
2015-Sep-01 17:00 178 5 24.4
2015-Sep-01 16:45 215 4 24.4
2015-Sep-01 16:30 193 6 25.0
2015-Sep-01 16:25 212 7 25.0
2015-Sep-01 16:20 245 6 25.0
2015-Sep-01 16:15 200 6 25.6
2015-Sep-01 16:10 187 6 25.6
2015-Sep-01 16:05 215 4 25.6
2015-Sep-01 15:45 211 6 25.6
2015-Sep-01 15:40 237 5 25.6
2015-Sep-01 15:35 229 5 25.6
2015-Sep-01 15:20 250 6 25.6
2015-Sep-01 15:10 218 5 25.6
2015-Sep-01 15:05 267 5 26.1
2015-Sep-01 15:00 211 6 26.7
2015-Sep-01 14:35 228 7 26.7
2015-Sep-01 14:30 242 8 26.7
2015-Sep-01 14:25 228 8 26.7
2015-Sep-01 14:15 296 7 26.7
2015-Sep-01 14:10 223 6 26.7
2015-Sep-01 13:55 196 7 26.7
2015-Sep-01 13:50 228 8 27.2
2015-Sep-01 13:45 189 9 26.7
2015-Sep-01 13:40 184 7 27.2
2015-Sep-01 13:35 165 6 27.2
2015-Sep-01 13:30 223 6 27.2
2015-Sep-01 13:25 246 6 26.7
2015-Sep-01 13:20 233 8 27.2
2015-Sep-01 13:10 229 7 27.2
2015-Sep-01 13:05 161 6 27.2
2015-Sep-01 12:55 196 8 27.2
2015-Sep-01 12:50 163 7 26.7
2015-Sep-01 12:45 211 6 27.2
2015-Sep-01 12:40 227 8 26.7
2015-Sep-01 12:35 207 8 26.7
2015-Sep-01 12:30 178 8 26.7
2015-Sep-01 12:25 270 7 26.7
2015-Sep-01 12:20 213 6 26.7
2015-Sep-01 12:15 210 7 26.7
2015-Sep-01 12:10 286 8 26.7
2015-Sep-01 12:05 219 9 26.7
2015-Sep-01 12:00 212 10 26.1
2015-Sep-01 11:56 240 9 26.1
2015-Sep-01 11:45 190 7 26.7
2015-Sep-01 11:40 217 7 26.7
2015-Sep-01 11:30 198 9 26.1
2015-Sep-01 11:25 200 7 26.1
2015-Sep-01 11:20 238 7 26.7
2015-Sep-01 11:10 223 7 26.1
2015-Sep-01 11:05 170 6 26.1
2015-Sep-01 10:55 215 6 26.1
2015-Sep-01 10:50 211 6 26.1
2015-Sep-01 10:45 214 6 25.6
2015-Sep-01 10:40 252 7 26.1
2015-Sep-01 10:35 169 6 26.1
2015-Sep-01 10:30 236 5 26.1
2015-Sep-01 10:25 179 6 25.6
2015-Sep-01 10:20 207 7 25.6
2015-Sep-01 10:05 229 5 25.6
2015-Sep-01 10:00 232 6 25.0
2015-Sep-01 09:55 192 6 25.0
2015-Sep-01 09:45 168 6 25.0
2015-Sep-01 09:30 171 5 25.0
2015-Sep-01 09:25 238 6 24.4
2015-Sep-01 09:20 218 6 24.4
2015-Sep-01 09:10 187 4 25.0
2015-Sep-01 09:00 163 3 24.4
2015-Sep-01 08:50 182 1 23.9
2015-Sep-01 08:35 098 2 23.3
2015-Sep-01 08:31 110 1 23.3
2015-Sep-01 07:33 115 1 22.8
2015-Sep-01 05:54 332 0 21.7